This is the latest recevied weather packets stored in our database for station/object KC5TXI. If no packets are shown the sender has not sent any weather packets the latest 10 day(s).
| Time | Temp. | Humidity | Pressure | Rain* | Wind** | Luminosity | Snow |
|---|---|---|---|---|---|---|---|
| 1787584333 | 35° C | 40% | 1016.3 hPa | 0 mm | - | 445 W/m² | - |
| 1787584032 | 35° C | 41% | 1016.4 hPa | 0 mm | - | 423 W/m² | - |
| 1787583727 | 35° C | 42% | 1016.3 hPa | 0 mm | - | 398 W/m² | - |
| 1787583422 | 34.44° C | 42% | 1016.4 hPa | 0 mm | - | 385 W/m² | - |
| 1787583120 | 33.89° C | 43% | 1016.4 hPa | 0 mm | - | 367 W/m² | - |
| 1787582816 | 33.33° C | 44% | 1016.5 hPa | 0 mm | - | 339 W/m² | - |
| 1787582510 | 32.78° C | 45% | 1016.3 hPa | 0 mm | - | 262 W/m² | - |
| 1787582206 | 32.78° C | 46% | 1016.3 hPa | 0 mm | - | 262 W/m² | - |
| 1787581906 | 32.78° C | 46% | 1016.5 hPa | 0 mm | - | 126 W/m² | - |
| 1787581601 | 32.78° C | 46% | 1016.4 hPa | 0 mm | - | 115 W/m² | - |
| 1787581301 | 32.78° C | 46% | 1016.6 hPa | 0 mm | - | 119 W/m² | - |
| 1787580996 | 32.78° C | 45% | 1016.3 hPa | 0 mm | - | 120 W/m² | - |
| 1787580691 | 32.78° C | 45% | 1016.4 hPa | 0 mm | - | 219 W/m² | - |
| 1787580387 | 32.78° C | 46% | 1016.4 hPa | 0 mm | - | 127 W/m² | - |
| 1787580082 | 32.22° C | 47% | 1016.3 hPa | 0 mm | - | 69 W/m² | - |
| 1787579781 | 32.22° C | 48% | 1016.4 hPa | 0 mm | - | 66 W/m² | - |
| 1787579475 | 31.67° C | 49% | 1016.4 hPa | 0 mm | - | 62 W/m² | - |
| 1787579171 | 31.11° C | 49% | 1016.4 hPa | 0 mm | - | 58 W/m² | - |
| 1787578867 | 31.11° C | 51% | 1016.3 hPa | 0 mm | - | 58 W/m² | - |
| 1787578563 | 30.56° C | 52% | 1016.3 hPa | 0 mm | - | 150 W/m² | - |
| 1787578262 | 30.56° C | 52% | 1016.1 hPa | 0 mm | - | 127 W/m² | - |
| 1787577958 | 30° C | 53% | 1016.3 hPa | 0 mm | - | 53 W/m² | - |
| 1787577653 | 29.44° C | 54% | 1016.2 hPa | 0 mm | - | 61 W/m² | - |
| 1787577349 | 29.44° C | 55% | 1015.9 hPa | 0 mm | - | 54 W/m² | - |
| 1787577044 | 28.89° C | 55% | 1016.2 hPa | 0 mm | - | 54 W/m² | - |
* Rain latest hour (hover to see other rain measurements)
** Current wind speed in m/s (hover to see current wind gust speed)